K8GLX Weather Reports


time (UTC)temp
F
wind
direction
speed
knots
gust
knots
rain 1hr
in
rain 24hr
in
rain mn
in
humidity
%
barometer
mb
20260503233709 60 244 3.5 16.5 0.00 0.00 0.00 38 1011.5
20260503233545 60 221 1.7 13.0 0.00 0.00 0.00 38 1011.3
20260503232839 61 248 5.2 14.8 0.00 0.00 0.00 38 1011.3
20260503231900 60 259 2.6 11.3 0.00 0.00 0.00 38 1011.2
20260503231421 60 260 8.7 14.8 0.00 0.00 0.00 37 1011.5
20260503230709 61 254 6.1 16.5 0.00 0.00 0.00 37 1011.5
20260503225709 61 225 5.2 16.5 0.00 0.00 0.00 37 1011.7
20260503225421 60 261 4.3 16.5 0.00 0.00 0.00 37 1011.4
20260503224901 60 251 2.6 14.8 0.00 0.00 0.00 38 1011.3
20260503224423 61 230 3.5 10.4 0.00 0.00 0.00 38 1011.3
20260503223709 61 241 5.2 12.2 0.00 0.00 0.00 38 1011.6
20260503222708 61 266 2.6 13.0 0.00 0.00 0.00 38 1011.7
20260503221709 61 254 8.7 12.2 0.00 0.00 0.00 38 1011.5
20260503220709 61 245 3.5 13.9 0.00 0.00 0.00 37 1011.7
20260503220435 61 260 7.0 18.2 0.00 0.00 0.00 37 1011.7
20260503215709 60 259 3.5 18.2 0.00 0.00 0.00 38 1011.9
20260503215422 61 263 7.8 17.4 0.00 0.00 0.00 38 1011.7
20260503214709 60 252 7.0 17.4 0.00 0.00 0.00 37 1011.9
20260503213708 61 258 11.3 16.5 0.00 0.00 0.00 37 1011.5
20260503213420 61 273 8.7 17.4 0.00 0.00 0.00 37 1011.6
20260503212708 61 263 9.6 17.4 0.00 0.00 0.00 37 1011.6
20260503212422 62 261 6.1 14.8 0.00 0.00 0.00 37 1011.5
20260503211708 62 258 13.9 14.8 0.00 0.00 0.00 36 1011.7
20260503210708 62 241 6.1 17.4 0.00 0.00 0.00 36 1011.7
20260503210422 62 265 6.1 19.1 0.00 0.00 0.00 35 1011.5
20260503205708 62 242 10.4 19.1 0.00 0.00 0.00 35 1011.4
20260503204709 62 260 6.1 13.0 0.00 0.00 0.00 36 1011.5
20260503204422 62 253 8.7 14.8 0.00 0.00 0.00 35 1011.6
20260503203712 62 204 10.4 14.8 0.00 0.00 0.00 35 1011.6
20260503202708 62 278 7.8 13.9 0.00 0.00 0.00 36 1011.5
20260503201709 62 254 8.7 16.5 0.00 0.00 0.00 36 1011.8
20260503200709 61 271 6.1 13.9 0.00 0.00 0.00 36 1012.2
20260503195708 61 275 13.0 13.9 0.00 0.00 0.00 37 1012.1
20260503194708 62 273 7.8 15.6 0.00 0.00 0.00 38 1012.4
20260503194422 60 261 7.8 15.6 0.00 0.00 0.00 40 1012.3
20260503193708 60 238 5.2 15.6 0.00 0.00 0.00 40 1012.5
20260503192713 60 235 7.8 14.8 0.00 0.00 0.00 40 1012.8
20260503192608 60 242 5.2 12.2 0.00 0.00 0.00 41 1012.9
20260503191907 61 261 6.1 13.0 0.00 0.00 0.00 42 1012.8
20260503191421 60 257 7.0 13.0 0.00 0.00 0.00 41 1013.0
20260503190709 60 284 7.8 14.8 0.00 0.00 0.00 40 1013.2
20260503190421 59 264 12.2 14.8 0.00 0.00 0.00 42 1013.1
20260503185709 60 281 11.3 16.5 0.00 0.00 0.00 41 1013.1
20260503185421 60 274 10.4 16.5 0.00 0.00 0.00 40 1013.2
20260503184859 60 255 6.1 13.0 0.00 0.00 0.00 40 1013.3
20260503184421 60 236 8.7 12.2 0.00 0.00 0.00 41 1013.3
20260503183708 61 271 9.6 16.5 0.00 0.00 0.00 39 1013.3
20260503182709 60 272 6.1 15.6 0.00 0.00 0.00 40 1013.3
20260503181709 59 274 9.6 16.5 0.00 0.00 0.00 40 1013.5
20260503180709 60 247 5.2 15.6 0.00 0.00 0.00 39 1013.5
20260503175709 59 255 8.7 17.4 0.00 0.00 0.00 38 1013.8
20260503174708 59 255 3.5 14.8 0.00 0.00 0.00 38 1013.6
20260503173708 59 272 9.6 14.8 0.00 0.00 0.00 38 1013.8
20260503172709 58 248 13.0 14.8 0.00 0.00 0.00 39 1014.0
20260503171709 58 256 7.8 16.5 0.00 0.00 0.00 41 1014.1
20260503171421 58 273 7.8 16.5 0.00 0.00 0.00 39 1014.0
20260503170709 58 266 6.1 13.9 0.00 0.00 0.00 39 1014.2
20260503150709 54 241 3.5 13.9 0.00 0.00 0.00 41 1015.4
20260503130709 47 235 3.5 9.6 0.00 0.00 0.00 44 1016.1
20260503110708 40 237 2.6 6.1 0.00 0.01 0.00 69 1015.5
20260503110422 40 167 2.6 6.1 0.00 0.01 0.00 70 1015.6
20260503081421 39 139 1.7 5.2 0.00 0.02 0.00 75 1015.6
20260503080708 39 216 2.6 5.2 0.00 0.02 0.00 75 1015.6
20260503080421 39 138 0.9 5.2 0.00 0.02 0.00 75 1015.6
20260503072708 39 213 2.6 4.3 0.00 0.03 0.00 76 1015.4
20260503071709 39 140 0.9 5.2 0.00 0.04 0.00 76 1015.7
20260503070708 39 164 0.9 4.3 0.00 0.04 0.00 76 1015.7
20260503054708 39 184 2.6 3.5 0.00 0.05 0.00 74 1016.0
20260503053708 39 195 1.7 3.5 0.00 0.06 0.00 73 1016.0
20260503053422 39 209 1.7 2.6 0.00 0.06 0.00 73 1016.2
20260503052709 39 174 2.6 2.6 0.00 0.07 0.00 73 1016.1
20260503051711 39 0 0.9 2.6 0.00 0.07 0.00 73 1016.2
20260503050709 39 359 0.0 2.6 0.00 0.07 0.00 71 1016.1
20260503050422 39 217 0.0 2.6 0.00 0.07 0.00 71 1016.3
20260503045708 40 310 1.7 2.6 0.00 0.07 0.00 71 1016.3
20260503044709 40 126 0.0 2.6 0.00 0.07 0.00 71 1016.3
20260503043709 40 86 0.0 5.2 0.00 0.07 0.00 71 1016.2
20260503042709 40 236 3.5 5.2 0.00 0.07 0.00 70 1016.4
20260503041709 41 227 2.6 5.2 0.00 0.08 0.00 70 1016.5
20260503040708 41 215 3.5 5.2 0.00 0.08 0.00 70 1016.1
20260503035709 41 221 3.5 5.2 0.00 0.09 0.08 70 1016.6
20260503034709 41 225 4.3 6.1 0.00 0.09 0.08 70 1016.4
20260503033709 42 258 2.6 6.1 0.00 0.09 0.08 69 1016.5
20260503033422 42 233 3.5 6.1 0.00 0.09 0.08 68 1016.5
20260503032709 42 216 5.2 5.2 0.00 0.09 0.08 68 1016.3
20260503031708 42 209 3.5 5.2 0.00 0.09 0.08 67 1016.5
20260503030709 42 216 3.5 5.2 0.00 0.09 0.08 67 1016.4
20260503030422 43 203 3.5 5.2 0.00 0.09 0.08 66 1016.6
20260503025709 43 213 3.5 5.2 0.00 0.09 0.08 66 1016.6
20260503024709 43 191 3.5 5.2 0.00 0.09 0.08 66 1016.7
20260503023709 43 207 3.5 5.2 0.00 0.09 0.08 65 1016.8
20260503022709 43 235 3.5 5.2 0.00 0.09 0.08 66 1017.0
20260503021708 43 238 1.7 5.2 0.00 0.09 0.08 65 1016.7
20260503020708 43 214 3.5 5.2 0.00 0.09 0.08 65 1016.8
20260503015709 43 208 3.5 4.3 0.00 0.09 0.08 64 1016.9
20260503014709 43 252 1.7 4.3 0.00 0.09 0.08 63 1016.9
20260503013709 44 271 1.7 7.0 0.00 0.09 0.08 62 1016.8
20260503012709 44 267 4.3 7.8 0.00 0.09 0.08 63 1017.0
20260503011708 44 274 2.6 6.1 0.00 0.09 0.08 62 1016.6
20260503010709 43 258 2.6 7.8 0.00 0.09 0.08 61 1016.9
20260503005708 44 261 4.3 6.1 0.00 0.09 0.08 61 1016.8
20260503004708 43 262 5.2 7.0 0.00 0.09 0.08 60 1016.9
20260503003709 44 264 3.5 7.0 0.00 0.09 0.08 58 1016.8
20260503003422 43 262 5.2 7.0 0.00 0.09 0.08 58 1016.7
20260503002708 43 273 6.1 7.0 0.00 0.09 0.08 57 1016.8
20260503001709 43 282 3.5 5.2 0.00 0.09 0.08 60 1016.7
20260503001422 43 286 3.5 6.1 0.00 0.09 0.08 59 1016.7
20260503000709 43 282 3.5 7.0 0.00 0.09 0.08 59 1017.0
20260502235708 43 248 3.5 7.0 0.00 0.09 0.08 61 1016.7
20260502235422 43 257 6.1 7.0 0.00 0.09 0.08 61 1016.7
20260502234709 43 262 5.2 7.0 0.00 0.09 0.08 60 1016.6